This is the latest recevied weather packets stored in our database for station/object DF9PM-13. If no packets are shown the sender has not sent any weather packets the latest 10 day(s).
| Time | Temp. | Humidity | Pressure | Rain* | Wind** | Luminosity | Snow |
|---|---|---|---|---|---|---|---|
| 1777556653 | 20° C | 16% | 1026.3 hPa | - | - | - | - |
| 1777556353 | 20.56° C | 16% | 1026.2 hPa | - | - | - | - |
| 1777556053 | 20.56° C | 15% | 1026.4 hPa | - | - | - | - |
| 1777555753 | 20.56° C | 15% | 1026.3 hPa | - | - | - | - |
| 1777555453 | 20° C | 16% | 1026.4 hPa | - | - | - | - |
| 1777555153 | 20° C | 16% | 1026.6 hPa | - | - | - | - |
| 1777554853 | 20.56° C | 17% | 1026.5 hPa | - | - | - | - |
| 1777554553 | 20° C | 17% | 1026.5 hPa | - | - | - | - |
| 1777554253 | 19.44° C | 17% | 1026.5 hPa | - | - | - | - |
| 1777553953 | 19.44° C | 17% | 1026.5 hPa | - | - | - | - |
| 1777553653 | 20° C | 17% | 1026.6 hPa | - | - | - | - |
| 1777553353 | 19.44° C | 17% | 1026.6 hPa | - | - | - | - |
| 1777553052 | 19.44° C | 16% | 1026.6 hPa | - | - | - | - |
| 1777552752 | 20° C | 17% | 1026.7 hPa | - | - | - | - |
| 1777552452 | 20° C | 16% | 1026.8 hPa | - | - | - | - |
| 1777552152 | 20° C | 16% | 1026.8 hPa | - | - | - | - |
| 1777551852 | 20° C | 17% | 1026.9 hPa | - | - | - | - |
| 1777551552 | 19.44° C | 18% | 1026.9 hPa | - | - | - | - |
| 1777551252 | 18.89° C | 18% | 1027 hPa | - | - | - | - |
| 1777550952 | 20° C | 17% | 1027.1 hPa | - | - | - | - |
| 1777550652 | 19.44° C | 16% | 1027.1 hPa | - | - | - | - |
| 1777550352 | 18.33° C | 17% | 1027 hPa | - | - | - | - |
| 1777550052 | 18.89° C | 17% | 1027.1 hPa | - | - | - | - |
| 1777549752 | 18.89° C | 16% | 1027.3 hPa | - | - | - | - |
| 1777549452 | 18.33° C | 17% | 1027.3 hPa | - | - | - | - |
* Rain since midnight (hover to see other rain measurements)
** Current wind speed in m/s (hover to see current wind gust speed)